Flag for U.S.A. Weather past 2 weeks in Dover, Delaware, U.S.A.

Now
66 °F

Clear.


Feels Like: 66 °F
Forecast: 63 / 82 °F
Wind: 6 mph from South

Location: Dover Air Force Base

Current Time: Jul 25, 2014 at 11:24:00 PM

Latest Report: Jul 25, 2014 at 10:58 PM


Visibility: 10 mi

Pressure: 30.01 "Hg

Humidity: 84%

Dew point: 61 °F

Location of DoverLocation

Historic Weather in Dover — Graph

°F

Dover temperature yesterday

Maximum temperature yesterday: 80 °F (at 4:58 PM)
Minimum temperature yesterday: 69 °F (at 11:58 PM)
Average temperature yesterday: 73 °F

Past Weeks' High & Low Weather Summary

 TemperatureHumidityPressure
High91 °F (Jul 14, 3:58 PM)100% (Jul 10, 9:55 PM)30.23 "Hg (Jul 10, 9:55 PM)
Low60 °F (Jul 25, 4:58 AM)38% (Jul 18, 5:58 PM)29.71 "Hg (Jul 15, 3:58 PM)
Average74 °F81%30.02 "Hg
* Reported Jul 10 9:55 PM — Jul 25 9:58 PM, Dover, Weather by CustomWeather, © 2014

Note: Actual official high and low records may vary slightly from our data, if they occured in-between our weather recording intervals... More about our weather records

Advertising

Dover weather history for previous 24 hours

 ConditionsComfort  
Time TempWeatherWind HumidityBarometerVisibility
9:58 PM
Jul 25
66 °FClear.5 mph77%30.03 "Hg10 mi
8:58 PM71 °FSunny.5 mph60%30.02 "Hg10 mi
7:58 PM75 °FSunny.7 mph55%30.02 "Hg10 mi
6:58 PM79 °FSunny.8 mph46%30.01 "Hg10 mi
5:58 PM80 °FSunny.5 mph50%30.00 "Hg10 mi
4:58 PM81 °FSunny.6 mph49%29.99 "Hg10 mi
3:58 PM80 °FPassing clouds.8 mph50%30.00 "Hg10 mi
2:58 PM80 °FPassing clouds.3 mph47%30.00 "Hg10 mi
1:58 PM77 °FPartly sunny.2 mph54%30.02 "Hg10 mi
12:58 PM77 °FSunny.7 mph55%30.02 "Hg10 mi
11:58 AM75 °FSunny.5 mph58%30.03 "Hg10 mi
10:58 AM74 °FSunny.6 mph61%30.04 "Hg10 mi
9:58 AM71 °FSunny.6 mph68%30.03 "Hg10 mi
8:58 AM68 °FSunny.8 mph69%30.03 "Hg10 mi
7:58 AM65 °FSunny.10 mph73%30.03 "Hg10 mi
6:58 AM63 °FSunny.9 mph77%30.00 "Hg10 mi
5:58 AM60 °FClear.7 mph85%29.97 "Hg10 mi
4:58 AM60 °FClear.6 mph86%29.95 "Hg10 mi
3:58 AM63 °FClear.8 mph84%29.95 "Hg10 mi
2:58 AM64 °FPassing clouds.6 mph82%29.95 "Hg10 mi
1:58 AM66 °FPassing clouds.9 mph80%29.94 "Hg10 mi
12:58 AM68 °FPassing clouds.8 mph78%29.92 "Hg10 mi
11:58 PM
Jul 24
69 °FPassing clouds.8 mph73%29.91 "Hg10 mi
Weather by CustomWeather, © 2014

See weather overviewHow to use our weather pages